User: anonymous   Login
Location: Hancock Field Station
(44.9202°N, 120.4259°W)
Time: 23:02:36
(UTC-07:00)
Language:

Nadezhda 4 Rocket - Orbit

View from above orbital plane
View from above orbital plane
View from above satellite
View from above satellite

Ground track
Ground track

The orbit data is extracted from the following two-line orbital elements,

1 23180U 94041B   16118.91002745  .00000078  00000-0  62679-4 0  9996
2 23180  82.9469 240.0344 0027761 310.4909 169.6801 13.77928510 95716
Epoch (UTC): 27 April 2016 21:50:26
Eccentricity: 0.0027761
inclination: 82.9469°
perigee height: 951 km
apogee height: 991 km
right ascension of ascending node: 240.0344°
argument of perigee: 310.4909°
revolutions per day: 13.77928510
mean anomaly at epoch: 169.6801°
orbit number at epoch: 9571

The dashed part of the orbit path shows where the satellite is in the earth's shadow,  

DLR